Simultaneous Nadir Overpasses (SNOs) Predictions

Prediction of SNOs between GOES-14 and NOAA-20 Satellite Orbit:

Table of predicted SNOs for the next 14.0 days since TLE Epoch: 8/17/2024
Index Date Time (GOES-14) GOES-14 Lat,Lon NOAA-20 Lat,Lon Distance(km) Time Diff (sec)
1 08/18/2024 20:39:15 -0.03,-108.34 -0.18,-109.08 84.31 80
2 08/19/2024 20:23:09 -0.03,-108.34 0.84,-104.55 431.81 80
3 08/21/2024 08:44:55 0.03,-108.37 0.37,-109.81 164.63 80
4 08/22/2024 08:23:29 0.03,-108.36 -0.65,-105.28 351.15 80
5 08/23/2024 20:45:24 -0.03,-108.31 -0.51,-110.59 259.46 80
6 08/24/2024 20:29:18 -0.03,-108.30 0.47,-106.05 256.81 80
7 08/26/2024 08:51:04 0.02,-108.34 0.67,-111.32 338.85 80
8 08/27/2024 08:29:38 0.02,-108.33 -0.31,-106.78 176.58 80
9 08/28/2024 20:51:32 -0.01,-108.26 -0.88,-112.08 435.52 80
10 08/29/2024 20:35:27 -0.00,-108.25 0.17,-107.55 80.52 80
